User: anonymous   Login
Location: Campavaglio
(41.1333°N, 9.2333°E)
Time: 07:08:59
(UTC+00:00)
Language:

Cosmos 2360 Rocket - Orbit

View from above orbital plane
View from above orbital plane
View from above satellite
View from above satellite

Ground track
Ground track

The orbit data is extracted from the following two-line orbital elements,

1 25407U 98045B   20224.16585772  .00000231  00000-0  14192-3 0  9991
2 25407  71.0121 142.6279 0009600 254.6218 105.3844 14.15828638139099
Epoch (UTC): 11 August 2020 03:58:50
Eccentricity: 0.0009600
inclination: 71.0121°
perigee height: 832 km
apogee height: 846 km
right ascension of ascending node: 142.6279°
argument of perigee: 254.6218°
revolutions per day: 14.15828638
mean anomaly at epoch: 105.3844°
orbit number at epoch: 13909

The dashed part of the orbit path shows where the satellite is in the earth's shadow,  

DLR